Location: Johnston City
(37.8206°N, 88.9276°W)
Time: 21:39:04
(UTC+00:00)

Daily predictions for brighter satellites

Satellite Brightness Start Highest point End
(mag) Time Altitude Azimuth Time Altitude Azimuth Time Altitude Azimuth
Meteor 2-10 4.4 23:33:57 10° SSE 23:38:41 41° E 23:43:23 10° NNE
Cosmos 921 Rocket 3.1 23:35:37 10° SSW 23:40:07 82° ESE 23:44:36 10° NNE
Cosmos 1953 3.1 23:41:07 10° SSW 23:45:08 59° W 23:49:09 10° N
Cosmos 2058 Rocket 3.1 23:44:33 10° S 23:48:49 57° E 23:53:06 10° NNE
Envisat 3.0 23:44:26 10° SSE 23:49:24 58° ENE 23:54:24 10° N
Cosmos 292 Rocket 3.7 23:44:59 10° S 23:49:40 67° ESE 23:54:24 10° NNE
ASTEX 1 3.5 23:47:31 10° NNE 23:52:25 58° E 23:57:18 10° S
Cosmos 2082 Rocket 3.8 23:50:50 10° NNE 23:54:04 15° NE 23:56:47 11° E
